FW9511 Weather Reports


time (UTC)temp
F
wind
direction
speed
knots
gust
knots
rain 1hr
in
rain 24hr
in
rain mn
in
humidity
%
barometer
mb
20260505051544 41 213 7.8 12.2 0.00 0.20 0.00 92 1008.2
20260505041539 42 211 5.2 7.8 0.00 0.21 0.00 90 1007.3
20260505040047 42 205 5.2 9.6 0.00 0.21 0.00 90 1007.2
20260505034601 42 200 7.0 11.3 0.00 0.24 0.00 90 1006.9
20260505033042 42 223 7.0 12.2 0.00 0.24 0.00 90 1006.7
20260505031546 42 213 5.2 11.3 0.00 0.24 0.00 89 1006.5
20260505030104 43 241 6.1 11.3 0.00 0.24 0.00 88 1006.4
20260505024542 43 193 8.7 17.4 0.00 0.27 0.24 87 1006.1
20260505023045 43 228 9.6 15.6 0.00 0.27 0.24 87 1005.9
20260505021540 44 203 8.7 14.8 0.00 0.27 0.24 86 1005.7
20260505014546 45 226 7.0 13.0 0.00 0.27 0.24 83 1005.4
20260505013044 45 201 7.0 14.8 0.00 0.27 0.24 82 1005.5
20260505011546 46 174 7.0 14.8 0.00 0.27 0.24 81 1005.6
20260505010057 46 218 8.7 13.9 0.00 0.27 0.24 80 1005.4
20260505004557 46 207 7.0 13.0 0.00 0.30 0.24 79 1005.1
20260505003037 47 189 4.3 9.6 0.00 0.30 0.24 77 1005.2
20260505001540 47 199 5.2 11.3 0.00 0.30 0.24 76 1005.1
20260505000042 48 208 9.6 14.8 0.00 0.30 0.24 74 1005.2
20260504234540 48 229 6.1 11.3 0.00 0.33 0.24 72 1004.7
20260504233038 47 213 5.2 13.0 0.00 0.33 0.24 74 1004.4
20260504231544 48 184 7.0 13.9 0.00 0.33 0.24 71 1004.4
20260504230038 51 210 7.8 14.8 0.00 0.33 0.24 63 1004.0
20260504224544 54 199 11.3 18.2 0.00 0.48 0.24 50 1003.7
20260504223039 54 231 9.6 25.2 0.00 0.48 0.24 50 1003.5
20260504221554 54 208 10.4 24.3 0.00 0.48 0.24 49 1003.6
20260504220043 55 242 13.9 26.1 0.00 0.48 0.24 47 1003.2
20260504214543 55 248 13.9 26.1 0.00 0.66 0.24 48 1003.2
20260504213043 55 230 13.9 22.6 0.00 0.66 0.24 48 1003.1
20260504211538 55 248 13.9 23.5 0.00 0.66 0.24 49 1002.8
20260504210046 55 245 18.2 27.8 0.00 0.66 0.24 51 1002.9
20260504204537 55 261 10.4 29.5 0.00 0.78 0.24 54 1002.5
20260504203044 55 233 18.2 33.0 0.00 0.78 0.24 51 1002.4
20260504201538 55 208 14.8 34.8 0.00 0.78 0.24 55 1002.1
20260504200038 55 234 18.2 30.4 0.00 0.78 0.24 59 1001.6
20260504194542 56 233 13.0 30.4 0.00 0.83 0.24 61 1001.4
20260504193044 55 247 16.5 27.8 0.00 0.83 0.24 62 1000.9
20260504191607 55 258 9.6 31.3 0.00 0.83 0.24 64 1000.9
20260504190040 55 234 10.4 26.1 0.00 0.83 0.24 64 1000.8
20260504184549 54 268 16.5 26.9 0.00 0.86 0.24 67 1000.7
20260504183038 53 241 13.0 27.8 0.00 0.86 0.24 69 1000.8
20260504181544 52 281 10.4 30.4 0.00 0.86 0.24 73 1000.6
20260504180043 50 216 11.3 30.4 0.00 0.86 0.24 77 1000.6
20260504174538 50 233 17.4 40.0 0.00 0.86 0.24 77 1000.6
20260504173038 50 239 14.8 36.5 0.00 0.86 0.24 77 1000.3
20260504171541 49 261 20.9 37.4 0.00 0.86 0.24 77 1000.1
20260504081542 36 220 19.1 32.2 0.01 0.73 0.11 97 981.6